Flag for Netherlands Weather past 2 weeks in Eindhoven, Netherlands

54 °F

Mostly cloudy.

Feels Like: 47 °F
Forecast: 44 / 54 °F
Wind: 25 mph from Southwest

Location: Eindhoven Airport

Current Time: Nov 29, 2015 at 6:57:11 PM

Latest Report: Nov 29, 2015 at 6:25 PM

Visibility: 6 mi

Pressure: 29.74 "Hg

Humidity: 82%

Dew point: 48 °F

Location of EindhovenLocation

Historic Weather in Eindhoven — Graph


Eindhoven temperature yesterday

Maximum temperature yesterday: 46 °F (at 12:25 PM)
Minimum temperature yesterday: 39 °F (at 12:25 AM)
Average temperature yesterday: 43 °F

Past Weeks' High & Low Weather Summary

High61 °F (Nov 15, 10:25 AM)100% (Nov 14, 10:25 PM)30.24 "Hg (Nov 14, 10:25 PM)
Low28 °F (Nov 23, 8:55 AM)62% (Nov 26, 2:25 PM)29.36 "Hg (Nov 21, 10:57 AM)
Average45 °F86%29.84 "Hg
* Reported Nov 14 5:04 PM — Nov 29 5:55 PM, Eindhoven, Weather by CustomWeather, © 2015

Note: Actual official high and low records may vary slightly from our data, if they occured in-between our weather recording intervals... More about our weather records


Eindhoven weather history for previous 24 hours

Time TempWeatherWind HumidityBarometerVisibility
5:55 PM
Sun, Nov 29
54 °FPassing clouds.25 mph77%29.74 "HgN/A
5:25 PM54 °FPassing clouds.24 mph77%29.74 "HgN/A
4:59 PM54 °FPartly cloudy.23 mph77%29.74 "HgN/A
4:55 PM54 °FPassing clouds.23 mph77%29.74 "HgN/A
4:25 PM52 °FDrizzle. Broken clouds.24 mph88%29.74 "Hg5 mi
3:55 PM54 °FMostly cloudy.22 mph77%29.74 "HgN/A
3:25 PM54 °FMore clouds than sun.23 mph77%29.74 "HgN/A
2:59 PM54 °FBroken clouds.22 mph77%29.74 "HgN/A
2:55 PM54 °FBroken clouds.22 mph77%29.74 "HgN/A
2:25 PM52 °FBroken clouds.21 mph88%29.74 "HgN/A
1:55 PM52 °FBroken clouds.21 mph88%29.74 "HgN/A
1:25 PM50 °FBroken clouds.22 mph94%29.74 "HgN/A
12:59 PM50 °FSprinkles. Mostly cloudy.17 mph94%29.77 "Hg5 mi
12:25 PM50 °FLight rain. Broken clouds.21 mph94%29.77 "HgN/A
11:55 AM52 °FMostly cloudy.21 mph82%29.77 "HgN/A
11:25 AM52 °FPartly sunny.21 mph82%29.80 "HgN/A
10:25 AM50 °FPartly sunny.18 mph88%29.77 "HgN/A
9:55 AM50 °FPartly sunny.18 mph88%29.77 "HgN/A
9:25 AM50 °FBroken clouds.18 mph88%29.77 "HgN/A
9:01 AM48 °FRain. Broken clouds.20 mph94%29.77 "HgN/A
8:25 AM48 °FPartly sunny.18 mph94%29.77 "HgN/A
7:55 AM48 °FMostly cloudy.16 mph94%29.77 "HgN/A
7:25 AM48 °FPartly cloudy.16 mph87%29.77 "HgN/A
6:55 AM48 °FPassing clouds.15 mph87%29.77 "HgN/A
5:55 AM48 °FOvercast.20 mph87%29.74 "HgN/A
5:25 AM48 °FPassing clouds.18 mph87%29.74 "HgN/A
4:55 AM48 °FOvercast.18 mph87%29.74 "HgN/A
4:25 AM46 °FPassing clouds.18 mph93%29.74 "HgN/A
3:59 AM46 °FLight rain. Partly cloudy.17 mph93%29.74 "HgN/A
3:25 AM46 °FLight rain. Passing clouds.17 mph87%29.74 "HgN/A
2:55 AM46 °FOvercast.21 mph87%29.74 "HgN/A
2:25 AM46 °FPartly cloudy.22 mph87%29.74 "HgN/A
1:55 AM45 °FRain showers. Passing clouds.16 mph93%29.74 "Hg5 mi
1:25 AM45 °FSprinkles. Partly cloudy.21 mph93%29.74 "Hg4 mi
12:55 AM45 °FLight rain. Mostly cloudy.23 mph93%29.74 "HgN/A
12:25 AM45 °FDrizzle. Mostly cloudy.18 mph87%29.74 "HgN/A
11:55 PM
Sat, Nov 28
45 °FLight rain. Passing clouds.21 mph87%29.77 "HgN/A
11:01 PM45 °FLight rain. Overcast.22 mph87%29.77 "HgN/A
10:55 PM45 °FLight rain. Overcast.21 mph87%29.77 "HgN/A
10:25 PM46 °FDrizzle. Mostly cloudy.22 mph76%29.77 "HgN/A
9:25 PM45 °FMostly cloudy.21 mph81%29.83 "HgN/A
8:55 PM43 °FMostly cloudy.21 mph87%29.83 "HgN/A
8:25 PM43 °FDrizzle. Overcast.18 mph87%29.86 "HgN/A
7:58 PM43 °FLight rain. Mostly cloudy.18 mph87%29.86 "HgN/A
7:55 PM43 °FDrizzle. Mostly cloudy.17 mph87%29.86 "HgN/A
7:25 PM43 °FDrizzle. Overcast.16 mph87%29.89 "HgN/A
6:55 PM43 °FLight rain. Overcast.16 mph87%29.89 "HgN/A
6:25 PM43 °FDrizzle. Mostly cloudy.17 mph81%29.89 "HgN/A
Weather by CustomWeather, © 2015

See weather overviewHow to use our weather pages